When you browse on this site, cookies collect data to enhance your experience and personalize the content and advertising you see.
Visit our Privacy Policy to learn more. By continuing to use the site, you agree to this use of cookies and data.
  • In Spain
  • List of Countries
  • For 7 days
  • Water Temperature
  • Weather Map
  • Weather Widgets
  • user-avatar
    Login

    Hourly Weather Zhezqazghan

    Today, 21 November, Thursday

    Time Temperature Precipitation Wind Pressure Humidity
    00:00 -8°C° 0 mm 6 mps 751 mmHg 49%
    01:00 -9°C° 0 mm 6 mps 751 mmHg 48%
    02:00 -9°C° 0 mm 6 mps 752 mmHg 47%
    03:00 -9°C° 0 mm 6 mps 752 mmHg 47%
    04:00 -9°C° 0 mm 6 mps 752 mmHg 46%
    05:00 -9°C° 0 mm 6 mps 753 mmHg 47%
    06:00 -8°C° 0 mm 5 mps 753 mmHg 48%
    07:00 -8°C° 0 mm 5 mps 754 mmHg 49%
    08:00 -7°C° 0 mm 5 mps 754 mmHg 46%
    09:00 -5°C° 0 mm 5 mps 754 mmHg 44%
    10:00 -2°C° 0 mm 5 mps 755 mmHg 41%
    11:00 -1°C° 0 mm 5 mps 755 mmHg 41%
    12:00 -1°C° 0 mm 5 mps 755 mmHg 40%
    13:00 0°C° 0 mm 5 mps 754 mmHg 40%
    14:00 -2°C° 0 mm 6 mps 754 mmHg 42%
    15:00 -2°C° 0 mm 6 mps 754 mmHg 44%
    16:00 -3°C° 0 mm 7 mps 754 mmHg 47%
    17:00 -4°C° 0 mm 7 mps 754 mmHg 50%
    18:00 -4°C° 0 mm 7 mps 754 mmHg 53%
    19:00 -6°C° 0 mm 7 mps 754 mmHg 56%
    20:00 -6°C° 0 mm 7 mps 754 mmHg 56%
    21:00 -5°C° 0 mm 6 mps 754 mmHg 55%
    22:00 -5°C° 0 mm 6 mps 754 mmHg 54%
    23:00 -6°C° 0 mm 6 mps 754 mmHg 53%

    Tomorrow, 22 November, Friday

    Time Temperature Precipitation Wind Pressure Humidity
    00:00 -6°C° 0 mm 5 mps 754 mmHg 53%
    01:00 -6°C° 0 mm 5 mps 754 mmHg 52%
    02:00 -6°C° 0 mm 5 mps 754 mmHg 52%
    03:00 -6°C° 0 mm 5 mps 754 mmHg 53%
    04:00 -5°C° 0 mm 4 mps 754 mmHg 53%
    05:00 -7°C° 0 mm 4 mps 754 mmHg 53%
    06:00 -7°C° 0 mm 4 mps 754 mmHg 53%
    07:00 -7°C° 0 mm 4 mps 754 mmHg 53%
    08:00 -4°C° 0 mm 3 mps 755 mmHg 49%
    09:00 -2°C° 0 mm 3 mps 755 mmHg 45%
    10:00 +1°C° 0 mm 2 mps 755 mmHg 41%
    11:00 +2°C° 0 mm 2 mps 755 mmHg 40%
    12:00 +3°C° 0 mm 2 mps 755 mmHg 38%
    13:00 +4°C° 0 mm 2 mps 755 mmHg 36%
    14:00 +3°C° 0 mm 2 mps 755 mmHg 38%
    15:00 +2°C° 0 mm 2 mps 755 mmHg 41%
    16:00 0°C° 0 mm 3 mps 755 mmHg 43%
    17:00 -1°C° 0 mm 2 mps 755 mmHg 44%
    18:00 -2°C° 0 mm 2 mps 755 mmHg 45%
    19:00 -2°C° 0 mm 2 mps 755 mmHg 46%
    20:00 -3°C° 0 mm 2 mps 755 mmHg 48%
    21:00 -1°C° 0 mm 1 mps 755 mmHg 50%
    22:00 -1°C° 0 mm 1 mps 755 mmHg 51%
    23:00 -1°C° 0 mm 1 mps 755 mmHg 52%

    Day after tomorrow, 23 November, Saturday

    Time Temperature Precipitation Wind Pressure Humidity
    00:00 -1°C° 0 mm 1 mps 755 mmHg 52%
    01:00 -1°C° 0 mm 1 mps 755 mmHg 52%
    02:00 -1°C° 0 mm 1 mps 755 mmHg 54%
    03:00 -1°C° 0 mm 1 mps 755 mmHg 56%
    04:00 -2°C° 0 mm 1 mps 755 mmHg 58%
    05:00 -2°C° 0 mm 1 mps 755 mmHg 58%
    06:00 -2°C° 0 mm 1 mps 755 mmHg 58%
    07:00 -2°C° 0 mm 1 mps 755 mmHg 57%
    08:00 0°C° 0 mm 1 mps 755 mmHg 51%
    09:00 -1°C° 0 mm 2 mps 755 mmHg 45%
    10:00 +1°C° 0 mm 2 mps 755 mmHg 39%
    11:00 +2°C° 0 mm 2 mps 755 mmHg 37%
    12:00 +3°C° 0 mm 2 mps 755 mmHg 36%
    13:00 +4°C° 0 mm 2 mps 755 mmHg 34%
    14:00 +3°C° 0 mm 2 mps 755 mmHg 36%
    15:00 +2°C° 0 mm 2 mps 754 mmHg 38%
    16:00 +1°C° 0 mm 2 mps 754 mmHg 40%
    17:00 +1°C° 0 mm 2 mps 754 mmHg 40%
    18:00 -1°C° 0 mm 2 mps 755 mmHg 41%
    19:00 0°C° 0 mm 1 mps 755 mmHg 41%
    20:00 -1°C° 0 mm 1 mps 755 mmHg 43%
    21:00 -1°C° 0 mm 1 mps 755 mmHg 45%
    22:00 -2°C° 0 mm 1 mps 755 mmHg 47%
    23:00 -2°C° 0 mm 1 mps 755 mmHg 48%

    24 November, Sunday

    Time Temperature Precipitation Wind Pressure Humidity
    00:00 -3°C° 0 mm 1 mps 755 mmHg 50%
    01:00 -3°C° 0 mm 1 mps 754 mmHg 51%
    02:00 -3°C° 0 mm 1 mps 754 mmHg 52%
    03:00 -4°C° 0 mm 1 mps 754 mmHg 53%
    04:00 -4°C° 0 mm 1 mps 754 mmHg 55%
    05:00 -3°C° 0 mm 1 mps 754 mmHg 53%
    06:00 -3°C° 0 mm 1 mps 755 mmHg 52%
    07:00 -3°C° 0 mm 1 mps 755 mmHg 50%
    08:00 -2°C° 0 mm 1 mps 755 mmHg 48%
    09:00 -1°C° 0 mm 1 mps 755 mmHg 46%
    10:00 -1°C° 0 mm 1 mps 756 mmHg 44%
    11:00 -2°C° 0 mm 2 mps 755 mmHg 43%
    12:00 -2°C° 0 mm 2 mps 755 mmHg 41%
    13:00 -1°C° 0 mm 2 mps 755 mmHg 40%
    14:00 -2°C° 0 mm 2 mps 755 mmHg 41%
    15:00 -2°C° 0 mm 2 mps 755 mmHg 41%
    16:00 -2°C° 0 mm 2 mps 756 mmHg 42%
    17:00 -3°C° 0 mm 2 mps 756 mmHg 41%
    18:00 -4°C° 0 mm 2 mps 756 mmHg 41%
    19:00 -4°C° 0 mm 2 mps 757 mmHg 40%
    20:00 -5°C° 0 mm 2 mps 757 mmHg 42%
    21:00 -6°C° 0 mm 2 mps 757 mmHg 43%
    22:00 -6°C° 0 mm 1 mps 757 mmHg 45%
    23:00 -6°C° 0 mm 1 mps 757 mmHg 46%

    25 November, Monday

    Time Temperature Precipitation Wind Pressure Humidity
    00:00 -6°C° 0 mm 1 mps 757 mmHg 47%
    01:00 -7°C° 0 mm 1 mps 757 mmHg 48%
    02:00 -6°C° 0 mm 1 mps 757 mmHg 47%
    03:00 -7°C° 0 mm 2 mps 757 mmHg 45%
    04:00 -7°C° 0 mm 2 mps 757 mmHg 44%
    05:00 -7°C° 0 mm 2 mps 757 mmHg 45%
    06:00 -8°C° 0 mm 3 mps 757 mmHg 45%
    07:00 -8°C° 0 mm 3 mps 757 mmHg 46%
    08:00 -7°C° 0 mm 3 mps 757 mmHg 41%
    09:00 -5°C° 0 mm 3 mps 758 mmHg 36%
    10:00 -3°C° 0 mm 4 mps 758 mmHg 31%
    11:00 -2°C° 0 mm 3 mps 758 mmHg 32%
    12:00 -1°C° 0 mm 3 mps 757 mmHg 32%
    13:00 0°C° 0 mm 3 mps 757 mmHg 33%
    14:00 -1°C° 0 mm 2 mps 757 mmHg 37%
    15:00 -2°C° 0 mm 2 mps 757 mmHg 41%
    16:00 -1°C° 0 mm 1 mps 756 mmHg 45%
    17:00 -2°C° 0 mm 1 mps 756 mmHg 47%
    18:00 -2°C° 0 mm 1 mps 757 mmHg 50%
    19:00 -3°C° 0 mm 1 mps 757 mmHg 52%
    20:00 -3°C° 0 mm 1 mps 756 mmHg 54%
    21:00 -5°C° 0 mm 0 mps 756 mmHg 56%
    22:00 -5°C° 0 mm 0 mps 756 mmHg 58%
    23:00 -6°C° 0 mm 0 mps 756 mmHg 58%

    26 November, Tuesday

    Time Temperature Precipitation Wind Pressure Humidity
    00:00 -6°C° 0 mm 0 mps 755 mmHg 59%
    01:00 -6°C° 0 mm 0 mps 755 mmHg 59%
    02:00 -6°C° 0 mm 0 mps 755 mmHg 61%
    03:00 -6°C° 0 mm 0 mps 755 mmHg 64%
    04:00 -7°C° 0 mm 0 mps 755 mmHg 66%
    05:00 -7°C° 0 mm 0 mps 755 mmHg 68%
    06:00 -6°C° 0 mm 1 mps 755 mmHg 71%
    07:00 -6°C° 0 mm 1 mps 755 mmHg 73%
    08:00 -3°C° 0 mm 1 mps 755 mmHg 65%
    09:00 -1°C° 0 mm 1 mps 756 mmHg 58%
    10:00 +1°C° 0 mm 1 mps 756 mmHg 50%
    11:00 +1°C° 0 mm 2 mps 755 mmHg 49%
    12:00 +1°C° 0 mm 2 mps 755 mmHg 47%
    13:00 +2°C° 0 mm 2 mps 755 mmHg 45%
    14:00 +1°C° 0 mm 2 mps 755 mmHg 49%
    15:00 -1°C° 0 mm 2 mps 755 mmHg 52%
    16:00 -2°C° 0 mm 2 mps 755 mmHg 55%
    17:00 -2°C° 0 mm 2 mps 755 mmHg 55%
    18:00 -3°C° 0 mm 2 mps 755 mmHg 55%
    19:00 -3°C° 0 mm 2 mps 755 mmHg 55%
    20:00 -4°C° 0 mm 2 mps 755 mmHg 55%
    21:00 -4°C° 0 mm 2 mps 755 mmHg 54%
    22:00 -4°C° 0 mm 2 mps 755 mmHg 53%
    23:00 -3°C° 0 mm 1 mps 755 mmHg 54%
    Show more